Location: Unspecified
(36.9193°S, 174.7252°E)
Time: 04:09:31
(UTC+13:00)

Envisat - Pass Details

Date: 21 September 2021
Orbit: 764 x 766 km, 98.2° (Epoch: 21 October)

Event Time Altitude Azimuth Distance (km) Brightness Sun altitude
Rises 03:48:13 0° 44° (NE) 3,225 6.5 -29.0°
Reaches altitude 10° 03:50:49 10° 56° (NE) 2,308 5.8 -28.5°
Maximum altitude 03:55:02 27° 112° (ESE) 1,459 5.1 -27.7°
Drops below altitude 10° 03:59:17 10° 168° (SSE) 2,332 5.9 -26.9°
Sets 04:01:54 0° 179° (S) 3,267 6.5 -26.5°
